Location: Shenandoah County Park
(38.9356°N, 78.4524°W)
Time: 18:01:49
(UTC-04:00)

Explorer 11/Cluster Stage 4 - Pass Details

Date: 29 February 2024
Orbit: 465 x 1219 km, 28.8° (Epoch: 21 April)

Event Time Altitude Azimuth Distance (km) Brightness Sun altitude
Rises 23:42:09 0° 241° (WSW) 3,953 - -57.0°
Reaches altitude 10° 23:45:07 10° 233° (SW) 3,066 - -57.1°
Maximum altitude 23:52:05 36° 170° (S) 1,821 - -57.5°
Drops below altitude 10° 23:59:13 10° 107° (ESE) 3,144 - -57.9°
Sets 00:02:17 0° 100° (E) 4,064 - -58.0°
